| time (UTC) | temp F | wind direction | speed MPH | gust MPH | rain 1hr in | rain 24hr in | rain mn in | humidity % | barometer mb |
| 20260504030300 | 32 | 0 | 0.0 | 0.0 | 0.00 | 0.00 | 0.00 | 1 | |
| 20260504024845 | 32 | 0 | 0.0 | 0.0 | 0.00 | 0.00 | 0.00 | 1 | |
| 20260504023545 | 32 | 0 | 0.0 | 0.0 | 0.00 | 0.00 | 0.00 | 1 | |
| 20260504022149 | 32 | 0 | 0.0 | 0.0 | 0.00 | 0.00 | 0.00 | 1 | |
| 20260504020805 | 32 | 0 | 0.0 | 0.0 | 0.00 | 0.00 | 0.00 | 1 | |
| 20260504015445 | 32 | 0 | 0.0 | 0.0 | 0.00 | 0.00 | 0.00 | 1 | |
| 20260504014140 | 32 | 0 | 0.0 | 0.0 | 0.00 | 0.00 | 0.00 | 1 | |
| 20260504012745 | 32 | 0 | 0.0 | 0.0 | 0.00 | 0.00 | 0.00 | 1 | |
| 20260504011359 | 32 | 0 | 0.0 | 0.0 | 0.00 | 0.00 | 0.00 | 1 | |
| 20260504010015 | 32 | 0 | 0.0 | 0.0 | 0.00 | 0.00 | 0.00 | 1 | |
| 20260504004545 | 32 | 0 | 0.0 | 0.0 | 0.00 | 0.00 | 0.00 | 1 | |
| 20260504003234 | 32 | 0 | 0.0 | 0.0 | 0.00 | 0.00 | 0.00 | 1 | |
| 20260504002005 | 32 | 0 | 0.0 | 0.0 | 0.00 | 0.00 | 0.00 | 1 | |
| 20260504000640 | 32 | 0 | 0.0 | 0.0 | 0.00 | 0.00 | 0.00 | 1 | |
| 20260503235419 | 32 | 0 | 0.0 | 0.0 | 0.00 | 0.00 | 0.00 | 1 | |
| 20260503234019 | 32 | 0 | 0.0 | 0.0 | 0.00 | 0.00 | 0.00 | 1 | |
| 20260503232655 | 55 | 315 | 3.0 | 4.0 | 0.00 | 0.00 | 0.00 | 71 | 1015.9 |
| 20260503231355 | 55 | 315 | 3.0 | 4.0 | 0.00 | 0.00 | 0.00 | 71 | 1015.9 |
| 20260503230002 | 55 | 315 | 3.0 | 4.0 | 0.00 | 0.00 | 0.00 | 71 | 1015.9 |
| 20260503224645 | 55 | 315 | 3.0 | 4.0 | 0.00 | 0.00 | 0.00 | 71 | 1015.9 |
| 20260503223235 | 56 | 315 | 1.0 | 3.0 | 0.00 | 0.00 | 0.00 | 68 | 1015.8 |
| 20260503221859 | 56 | 315 | 1.0 | 3.0 | 0.00 | 0.00 | 0.00 | 68 | 1015.8 |
| 20260503220520 | 56 | 315 | 3.0 | 8.0 | 0.00 | 0.00 | 0.00 | 65 | 1015.5 |
| 20260503215210 | 56 | 315 | 3.0 | 8.0 | 0.00 | 0.00 | 0.00 | 65 | 1015.5 |
| 20260503213743 | 56 | 315 | 3.0 | 8.0 | 0.00 | 0.00 | 0.00 | 65 | 1015.5 |
| 20260503212359 | 59 | 315 | 5.0 | 8.0 | 0.00 | 0.00 | 0.00 | 61 | 1015.1 |
| 20260503211020 | 59 | 315 | 5.0 | 8.0 | 0.00 | 0.00 | 0.00 | 61 | 1015.1 |
| 20260503205730 | 60 | 270 | 4.0 | 8.0 | 0.00 | 0.00 | 0.00 | 55 | 1014.7 |
| 20260503204346 | 60 | 270 | 4.0 | 8.0 | 0.00 | 0.00 | 0.00 | 55 | 1014.7 |
| 20260503203049 | 63 | 315 | 7.0 | 14.0 | 0.00 | 0.00 | 0.00 | 46 | 1014.1 |
| 20260503201715 | 63 | 315 | 7.0 | 14.0 | 0.00 | 0.00 | 0.00 | 46 | 1014.1 |
| 20260503200258 | 63 | 315 | 7.0 | 14.0 | 0.00 | 0.00 | 0.00 | 46 | 1014.1 |
| 20260503194858 | 63 | 315 | 7.0 | 14.0 | 0.00 | 0.00 | 0.00 | 46 | 1014.1 |
| 20260503193509 | 64 | 270 | 10.0 | 28.0 | 0.00 | 0.00 | 0.00 | 50 | 1013.3 |
| 20260503192019 | 64 | 270 | 10.0 | 28.0 | 0.00 | 0.00 | 0.00 | 50 | 1013.3 |
| 20260503190725 | 64 | 270 | 10.0 | 28.0 | 0.00 | 0.00 | 0.00 | 50 | 1013.3 |
| 20260503185351 | 64 | 270 | 10.0 | 28.0 | 0.00 | 0.00 | 0.00 | 50 | 1013.3 |
| 20260503183919 | 64 | 270 | 10.0 | 28.0 | 0.00 | 0.00 | 0.00 | 50 | 1013.3 |
| 20260503182509 | 67 | 270 | 14.0 | 28.0 | 0.00 | 0.00 | 0.00 | 42 | 1012.7 |
| 20260503181125 | 67 | 270 | 14.0 | 28.0 | 0.00 | 0.00 | 0.00 | 42 | 1012.7 |
| 20260503175735 | 73 | 270 | 5.0 | 10.0 | 0.00 | 0.00 | 0.00 | 35 | 1011.0 |
| 20260503174425 | 73 | 270 | 5.0 | 10.0 | 0.00 | 0.00 | 0.00 | 35 | 1011.0 |
| 20260503173149 | 73 | 270 | 5.0 | 10.0 | 0.00 | 0.00 | 0.00 | 35 | 1011.0 |
| 20260503171836 | 73 | 270 | 5.0 | 10.0 | 0.00 | 0.00 | 0.00 | 35 | 1011.0 |
| 20260503170458 | 74 | 270 | 5.0 | 11.0 | 0.00 | 0.00 | 0.00 | 33 | 1010.9 |
| 20260503150355 | 76 | 315 | 6.0 | 12.0 | 0.00 | 0.00 | 0.00 | 28 | 1011.3 |
| 20260503130550 | 74 | 315 | 6.0 | 11.0 | 0.00 | 0.00 | 0.00 | 36 | 1012.7 |
| 20260503110335 | 71 | 270 | 3.0 | 6.0 | 0.00 | 0.00 | 0.00 | 43 | 1014.2 |
| 20260503090205 | 60 | 315 | 3.0 | 7.0 | 0.00 | 0.00 | 0.00 | 62 | 1016.1 |
| 20260503080755 | 56 | 270 | 5.0 | 7.0 | 0.00 | 0.00 | 0.00 | 75 | 1016.5 |
| 20260503072734 | 56 | 270 | 4.0 | 6.0 | 0.00 | 0.00 | 0.00 | 77 | 1016.2 |
| 20260503071250 | 56 | 270 | 4.0 | 6.0 | 0.00 | 0.00 | 0.00 | 77 | 1016.2 |
| 20260503053935 | 49 | 45 | 4.0 | 6.0 | 0.00 | 0.00 | 0.00 | 85 | 1016.8 |
| 20260503052640 | 46 | 45 | 4.0 | 5.0 | 0.00 | 0.00 | 0.00 | 87 | 1017.2 |
| 20260503051235 | 46 | 45 | 4.0 | 5.0 | 0.00 | 0.00 | 0.00 | 87 | 1017.2 |
| 20260503050018 | 47 | 45 | 2.0 | 5.0 | 0.00 | 0.00 | 0.00 | 87 | 1017.1 |
| 20260503044710 | 47 | 45 | 2.0 | 5.0 | 0.00 | 0.00 | 0.00 | 87 | 1017.1 |
| 20260503043419 | 47 | 45 | 2.0 | 5.0 | 0.00 | 0.00 | 0.00 | 86 | 1017.3 |
| 20260503042005 | 47 | 45 | 2.0 | 5.0 | 0.00 | 0.00 | 0.00 | 86 | 1017.3 |
| 20260503040540 | 47 | 45 | 2.0 | 4.0 | 0.00 | 0.00 | 0.00 | 87 | 1017.3 |
| 20260503035145 | 47 | 45 | 2.0 | 4.0 | 0.00 | 0.00 | 0.00 | 87 | 1017.3 |
| 20260503033750 | 47 | 45 | 2.0 | 4.0 | 0.00 | 0.00 | 0.00 | 87 | 1017.3 |
| 20260503032410 | 50 | 45 | 2.0 | 3.0 | 0.00 | 0.00 | 0.00 | 83 | 1017.1 |
| 20260503030959 | 50 | 45 | 2.0 | 3.0 | 0.00 | 0.00 | 0.00 | 83 | 1017.1 |